This is the latest recevied weather packets stored in our database for station/object PY2UTU-WX. If no packets are shown the sender has not sent any weather packets the latest 10 day(s).
| Time | Temp. | Humidity | Pressure | Rain* | Wind** | Luminosity | Snow |
|---|---|---|---|---|---|---|---|
| 1778029045 | 22.78° C | 98% | 928 hPa | - | - | - | - |
| 1778028146 | 22.78° C | 98% | 928 hPa | - | - | - | - |
| 1778027246 | 22.78° C | 98% | 928.1 hPa | - | - | - | - |
| 1778026346 | 22.78° C | 98% | 928.1 hPa | - | - | - | - |
| 1778025446 | 23.33° C | 98% | 928 hPa | - | - | - | - |
| 1778024545 | 23.33° C | 98% | 928 hPa | - | - | - | - |
| 1778023646 | 23.89° C | 98% | 928.2 hPa | - | - | - | - |
| 1778022746 | 23.89° C | 98% | 928.2 hPa | - | - | - | - |
| 1778021846 | 23.89° C | 98% | 928.1 hPa | - | - | - | - |
| 1778020945 | 23.89° C | 98% | 927.8 hPa | - | - | - | - |
| 1778020045 | 23.89° C | 98% | 927.8 hPa | - | - | - | - |
| 1778019145 | 23.89° C | 98% | 927.7 hPa | - | - | - | - |
| 1778018245 | 24.44° C | 98% | 927.5 hPa | - | - | - | - |
| 1778017345 | 25° C | 98% | 927.4 hPa | - | - | - | - |
| 1778016445 | 24.44° C | 98% | 927.4 hPa | - | - | - | - |
| 1778015545 | 25° C | 98% | 927.4 hPa | - | - | - | - |
| 1778014645 | 25.56° C | 98% | 927.3 hPa | - | - | - | - |
| 1778013745 | 25.56° C | 98% | 927.2 hPa | - | - | - | - |
| 1778012845 | 26.11° C | 94% | 927 hPa | - | - | - | - |
| 1778011945 | 26.11° C | 91% | 926.9 hPa | - | - | - | - |
| 1778011045 | 26.11° C | 91% | 926.7 hPa | - | - | - | - |
| 1778010145 | 26.11° C | 90% | 926.7 hPa | - | - | - | - |
| 1778009245 | 26.67° C | 89% | 926.6 hPa | - | - | - | - |
| 1778008345 | 27.22° C | 88% | 926.5 hPa | - | - | - | - |
| 1778007445 | 27.78° C | 86% | 926.4 hPa | - | - | - | - |
* Rain since midnight (hover to see other rain measurements)
** Current wind speed in m/s (hover to see current wind gust speed)